COSMOS 970 DEB, 64971

Orbit data source: Space-Track

COSMOS 970 DEB, 64971 is space debris in LEO originally from a launch on Wed, 21 Dec 1977 UTC launched from the Tyuratam Missile And Space Complex (TTMTR). Debris objects in space refer to the collection of defunct objects orbiting the Earth. Examples of debris include non-operational satellites, rocket bodies, and fragments generated from explosions, collisions, or faulty payload assembly.

Loading next visibility...
Identifier
64971, 1977-121CG
Orbit
LEO
Country
Flag of CISCIS
Related business
Manufacturer
Unknown
Mission
Spacecraft
Bus & Motor
Unknown
Mass
Unknown
Launch date (UTC)
1977-12-21 (48 years ago)
Launch vehicle
Unknown
Launch site
Tyuratam Missile And Space Complex (TTMTR)
Object type
Payload
Rocket body
Debris
Shape & HBR
Unknown shape, 0.1 m
Radar Cross Section
Small (<0.1 m²)

Expand to show TLE details & history
Last TLE update: 1 day ago

TLE from 1 day ago
0 COSMOS 970 DEB
1 64971U 77121CG  26170.82001013  .00000065  00000-0  15833-3 0  9990
2 64971  65.8304 101.2925 0141986 202.3132 190.0930 13.67934185627821
Epoch: 2026-06-19T19:40Z
TLE epoch observation values (Epoch: 2026-06-19T19:40:48.875Z)
Latitude
29.08389°
Longitude
-87.57475°
Altitude
1,112.974 km
Speed
7.248 km/s
True Right ascension
07h 42m 41s
True Declination
28° 56' 42"
Sunlit
Object was in daylight at epoch
Visualization orbit readout
Latitude
Unknown
Longitude
Unknown
Altitude
Unknown
Speed
Unknown
Apparent Right ascension
Unknown
Apparent Declination
Unknown
Sunlit
N/A
Visualization observer readout
Local Sidereal Time
07:12:54
Azimuth
Unknown
Elevation
Unknown
Doppler factor
Unknown
Orbital elements
Apogee altitude
1,110.357 km
Perigee altitude
900.681 km
Semi-major axis
7,383.656 km
Eccentricity
0.0142
Inclination
65.8304°
RAAN
101.2925°
Arg. of periapsis
202.3132°
True anomaly
189.81277°
Mean anomaly
190.093°
Eccentric anomaly
189.9524°
Mean motion
3.42087 °/min
Orbital period
105.24 mins
BSTAR
0.00015833
Loading maneuver chart data...
Computing Atmospheric mass density...
Loading historical data...
Loading historical data...
Loading historical data...
Loading historical data...
Loading historical data...
Loading historical data...
Loading historical data...

Documentation

Showing up to 5 results
|